Location: *
(41.0833°N, 3.9333°W)
Time: 05:46:37
(UTC+00:00)

Daily predictions for brighter satellites

Satellite Brightness Start Highest point End
(mag) Time Altitude Azimuth Time Altitude Azimuth Time Altitude Azimuth
SL-16 R/B 3.9 00:06:04 26° NW 00:06:04 26° NW 00:10:27 10° N
Cosmos 1844 Rocket 4.5 00:03:07 10° NW 00:05:29 25° NW 00:05:29 25° NW
USA 238 DEB 4.4 00:07:14 10° NW 00:12:47 52° WNW 00:12:47 52° WNW
USA 238 4.4 00:07:19 10° NW 00:12:54 52° WNW 00:12:54 52° WNW
Lacrosse 5 4.1 00:35:37 19° NNW 00:36:20 20° NNW 00:40:04 10° NNE
Cosmos 2237 Rocket 3.7 00:59:39 29° ENE 00:59:39 29° ENE 01:02:48 10° NE
Cosmos 2360 Rocket 4.3 01:10:54 17° NW 01:11:01 17° NW 01:14:37 10° N
CZ-2D R/B 4.1 01:07:16 10° NE 01:10:23 20° E 01:10:23 20° E
COSMOS 2428 3.8 01:13:37 41° N 01:13:37 41° N 01:17:29 10° NNE
Cosmos 2219 Rocket 3.9 01:23:12 24° NW 01:23:12 24° NW 01:26:57 10° N
Resurs 1-4 Rocket 3.8 01:18:51 10° NE 01:22:17 25° ENE 01:22:17 25° ENE
Cosmos 2278 Rocket 3.1 01:28:42 10° NNW 01:32:30 44° NNW 01:32:30 44° NNW
ADEOS II 3.6 01:43:09 10° NE 01:47:24 27° E 01:47:24 27° E
ATLAS 2AS CENTAUR R/B 3.0 01:49:36 61° ESE 01:49:41 61° ESE 01:56:47 10° NE
Nadezhda 4 Rocket 4.1 01:50:48 70° N 01:50:48 70° N 01:56:11 10° N
Cosmos 1943 Rocket 2.6 01:46:49 10° NNW 01:51:51 59° NNE 01:51:51 59° NNE
SL-16 R/B 3.3 01:54:58 35° E 01:54:58 35° E 01:59:44 10° NE
ATLAS 5 CENTAUR R/B 3.5 01:51:17 10° NNW 01:55:54 35° NE 02:01:27 10° ESE
Meteor 1-27 Rocket 3.9 02:01:01 67° NE 02:01:01 67° NE 02:05:58 10° NNE
CZ-2C R/B 3.4 02:00:14 44° E 02:00:48 46° ENE 02:05:52 10° N
SL-16 R/B 3.9 02:00:25 15° ESE 02:04:50 36° ENE 02:10:25 10° N
ALOS 4.2 02:06:22 10° NE 02:09:52 21° E 02:10:18 21° ESE
NPP 3.8 02:07:25 10° NNE 02:12:10 70° N 02:12:10 70° N
USA 215 3.4 02:13:49 10° NE 02:20:15 63° NW 02:21:28 54° W
Meteor 1-11 Rocket 4.4 02:21:06 10° NNW 02:25:03 42° NW 02:25:03 42° NW
NOSS 3-1 (C) 4.4 02:22:14 10° NNW 02:29:42 67° NE 02:38:39 10° SE
ATLAS 3B R/B 4.1 02:28:58 10° NNW 02:36:22 42° NE 02:43:40 10° ESE
Cosmos 2026 Rocket 3.9 02:37:39 68° SW 02:38:19 74° W 02:44:44 10° N
MSX 3.8 02:32:41 10° N 02:38:23 64° WNW 02:38:35 63° W
Cosmos 1371 Rocket 3.9 02:34:43 10° NNW 02:39:56 85° WNW 02:39:56 85° WNW
Cosmos 1328 Rocket 4.0 02:41:11 58° E 02:41:11 58° E 02:45:24 10° NNE
Cosmos 1626 3.9 02:42:31 27° NE 02:42:31 27° NE 02:44:31 10° NNE
Cosmos 2237 Rocket 3.3 02:41:27 30° WNW 02:41:39 30° NW 02:46:37 10° N
Cosmos 1092 Rocket 3.8 02:42:40 64° WSW 02:43:12 67° W 02:49:21 10° N
Cosmos 2344 4.3 02:35:39 10° NW 02:44:29 58° WSW 02:56:48 10° SSE
IDEFIX/ARIANE 42P 3.1 02:40:06 10° N 02:44:41 43° WNW 02:44:41 43° WNW
Cosmos 2369 Rocket 3.6 02:40:31 10° N 02:45:40 36° ENE 02:50:46 10° SE
Cosmos 1151 Rocket 4.1 02:47:21 36° NNW 02:47:21 36° NNW 02:50:20 10° N
Cosmos 921 Rocket 3.6 02:48:29 50° NNW 02:48:29 50° NNW 02:52:01 10° N
CZ-2C R/B 3.1 02:45:49 10° N 02:51:12 82° WNW 02:51:58 67° SW
Cosmos 1975 3.5 02:47:29 10° N 02:50:23 48° N 02:50:23 48° N
CZ-2D R/B 2.4 02:46:16 10° N 02:51:30 52° WNW 02:51:41 52° WNW
USA 267 3.4 02:46:35 10° ESE 02:53:03 75° NE 02:59:34 10° NW
Cosmos 2297 4.3 02:48:45 10° NNW 02:54:26 57° ENE 03:00:04 10° SE
Cosmos 1633 Rocket 3.2 02:50:18 10° N 02:54:39 69° E 02:55:02 64° ESE
AQUA 3.6 02:51:46 10° N 02:56:31 81° WNW 02:56:42 79° WSW
SAR-Lupe-4 4.4 02:55:34 10° NNE 02:58:13 47° N 02:58:13 47° N
Cosmos 494 Rocket 3.8 03:02:00 66° SW 03:02:42 83° WNW 03:07:51 10° NNE
Resurs 1-4 Rocket 2.8 02:58:18 10° N 03:03:09 38° WNW 03:03:21 38° WNW
Meteor 2-4 Rocket 3.6 03:04:17 57° SW 03:05:14 69° W 03:10:52 10° N
Cosmos 1766 4.2 03:02:32 10° N 03:06:04 41° E 03:07:18 30° SE
Cosmos 1943 4.1 03:03:45 25° SSE 03:06:31 43° ESE 03:11:52 10° NE
Delta 2 Rocket 4.2 03:10:33 45° SSE 03:10:33 45° SSE 03:15:05 10° ESE
Cosmos 1048 Rocket 3.9 03:09:34 51° SSW 03:10:58 86° ESE 03:16:14 10° NNE
UNK 3.7 03:10:15 33° SSE 03:12:19 79° ENE 03:16:57 10° N
FENGYUN 3A 3.8 03:07:55 10° N 03:13:14 57° WNW 03:14:20 48° WSW
Meteor 2-12 Rocket 4.3 03:16:17 37° SSW 03:18:48 79° W 03:24:55 10° N
SEDSat Delta rocket 4.5 03:21:55 31° S 03:22:26 31° S 03:27:48 10° ESE
USA 306 4.0 03:22:03 27° SE 03:22:31 28° SE 03:25:42 10° ENE
CZ-2C R/B 3.6 03:18:15 10° NNE 03:23:06 40° E 03:27:31 12° SSE
IRAS Rocket 4.5 03:17:57 10° N 03:23:24 53° WNW 03:25:03 39° WSW
Cosmos 468 4.5 03:23:29 37° SSW 03:25:39 84° ESE 03:30:55 10° NNE
ADEOS II 2.8 03:22:28 10° N 03:27:15 37° WNW 03:28:17 33° W
EO 1 Delta rocket 3.9 03:23:56 10° N 03:28:35 67° WNW 03:30:33 37° SSW
Cosmos 1707 3.8 03:27:10 20° SSE 03:29:16 39° E 03:32:43 10° NNE
Cosmos 1842 3.4 03:32:03 33° SSE 03:33:32 65° E 03:37:14 10° NNE
IRS-1D 4.5 03:30:23 10° NNE 03:35:23 46° E 03:40:25 10° S
Cosmos 1943 Rocket 4.0 03:31:57 10° WNW 03:33:18 14° WNW 03:33:18 14° WNW
CZ-4 R/B 3.7 03:31:37 10° NNE 03:36:19 85° ESE 03:38:49 27° S
Cosmos 2266 Rocket 3.9 03:32:14 20° S 03:36:35 89° ESE 03:42:39 10° N
Cosmos 1110 Rocket 4.0 03:32:18 10° NNW 03:37:37 84° ENE 03:42:55 10° SSE
Cosmos 1603 4.4 03:34:08 16° S 03:38:26 50° ESE 03:43:52 10° NE
SL-16 R/B 3.1 03:36:50 27° W 03:38:42 33° WNW 03:43:48 10° N
ATLAS 5 CENTAUR R/B 2.6 03:34:55 10° NW 03:39:57 42° WSW 03:46:00 10° S
SL-08 ROCKET BODY 4.4 03:35:18 16° S 03:40:10 82° E 03:46:15 10° N
YAOGAN 6 3.5 03:37:29 10° NNE 03:40:39 41° E 03:42:45 18° SSE
ATLAS 2AS CENTAUR R/B 3.8 03:37:01 21° W 03:40:59 34° NW 03:47:25 10° NNE
CZ-2C R/B 3.9 03:41:43 22° W 03:41:43 22° W 03:45:22 10° NW
Cosmos 1515 Rocket 3.5 03:40:24 36° SSW 03:42:03 64° W 03:46:28 10° N
GEOS 3 Rocket 3.9 03:37:08 10° SSE 03:42:14 46° WSW 03:47:21 10° NW
S3M 4.0 03:37:40 10° N 03:43:55 88° W 03:50:13 10° S
Cosmos 1452 Rocket 3.4 03:40:47 10° NNW 03:46:03 78° WSW 03:51:16 10° SSE
ALOS 2.9 03:42:55 10° N 03:47:12 38° WNW 03:48:37 30° WSW
SL-16 R/B 3.0 03:45:30 25° SW 03:48:19 37° W 03:54:03 10° NNW
Cosmos 1470 Rocket 3.9 03:45:51 10° NNW 03:50:06 46° W 03:52:03 27° SSW
Envisat 2.9 03:46:59 10° N 03:52:04 81° WNW 03:55:51 18° SSW
Cosmos 1331 Rocket 4.0 03:57:36 10° NNW 04:02:50 63° WSW 04:08:00 10° S
NOSS 3-1 (A) 4.1 03:55:13 10° NW 04:02:52 71° WSW 04:11:56 10° SSE
Cosmos 1674 2.8 04:01:58 31° SW 04:03:06 43° W 04:06:24 10° N
Lacrosse 5 4.3 04:01:54 10° NNW 04:05:54 22° NNE 04:09:53 10° ENE
Meteor 1-13 Rocket 4.3 04:00:17 10° S 04:06:02 86° E 04:11:57 10° N
METEOR-M 4.3 04:02:40 10° N 04:07:54 57° WNW 04:12:13 15° SSW
CZ-3 R/B 4.0 03:50:13 19° SW 04:09:27 42° S 04:18:11 10° ESE
Cosmos 1908 3.0 04:09:55 10° N 04:13:33 85° E 04:17:09 10° S
USA 305 1.4 04:14:01 37° SE 04:14:02 37° SE 04:15:44 10° ENE
DMSP B5D2-2 4.1 04:09:43 10° SSE 04:14:55 88° ENE 04:20:08 10° NNW
Cosmos 1626 4.2 04:15:33 10° WNW 04:15:33 10° WNW 04:16:05 10° WNW
CRYOSAT 2 4.3 04:11:31 10° N 04:16:23 72° W 04:21:14 10° SSW
Cosmos 1933 Rocket 3.8 04:12:47 10° NNW 04:16:55 45° W 04:21:01 10° SSW
Cosmos 1470 2.9 04:15:03 10° NNW 04:18:43 48° W 04:22:21 10° SSW
ISS -3.8 04:17:01 22° WSW 04:19:01 83° NNW 04:22:21 10° NE
NOAA 11 4.4 04:14:08 10° N 04:19:28 56° WNW 04:24:48 10° SSW
Cosmos 1655 Rocket 4.1 04:15:54 10° SSW 04:21:59 58° W 04:28:09 10° N
USA 276 2.6 04:21:57 17° SSW 04:23:43 42° SE 04:26:29 10° ENE
ATLAS 3B R/B 3.1 04:19:49 10° NW 04:27:20 51° WSW 04:34:40 10° S
BREEZE-M DEB (TANK) 3.6 04:25:25 10° W 04:29:31 25° NNW 04:31:40 10° NE
Cosmos 2369 Rocket 2.8 04:24:40 10° NW 04:29:33 32° WSW 04:34:25 10° SSW
Cosmos 2315 Rocket 4.1 04:23:37 10° NNW 04:29:41 58° W 04:35:44 10° S
Gbstr 26 Del rocket 4.1 04:26:28 10° NW 04:30:13 38° NNE 04:33:42 10° E
Cosmos 1441 Rocket 4.4 04:28:23 10° N 04:32:00 45° ENE 04:35:32 10° SSE
Chandra Rocket (1) 3.8 04:32:58 10° SSW 04:34:45 13° SSE 04:37:19 10° SE
Cosmos 614 Rocket 3.9 04:29:42 10° SSW 04:34:47 79° WNW 04:39:58 10° NNE
USA 267 3.9 04:30:49 10° S 04:36:24 30° SW 04:42:00 10° WNW
Cosmos 44 3.4 04:36:12 10° NNW 04:41:08 79° ENE 04:45:43 10° SE
Cosmos 1269 Rocket 4.4 04:37:53 10° S 04:43:06 67° ESE 04:48:20 10° NNE
Cosmos 1707 Rocket 3.5 04:46:16 10° S 04:50:34 78° W 04:54:54 10° N
Cosmos 1943 4.3 04:45:47 10° WSW 04:50:40 29° NW 04:55:36 10° N
USA 307 1.3 04:50:53 10° WSW 04:52:37 49° NW 04:54:45 10° NE
Cosmos 1939 Rocket 3.2 04:50:20 10° NNE 04:54:07 65° E 04:57:54 10° S
Thor Agena Rocket 4.4 04:52:04 10° N 04:56:26 30° WNW 05:00:49 10° SW
